GW1950 Weather Reports


time (UTC)temp
F
wind
direction
speed
knots
gust
knots
rain 1hr
in
rain 24hr
in
rain mn
in
humidity
%
barometer
mb
20260503050846 47 160 0.0 0.0 0.00 0.00 0.00 50 1007.5
20260503050342 47 140 0.0 0.9 0.00 0.00 0.00 49 1007.6
20260503045840 46 150 0.0 0.9 0.00 0.00 0.00 51 1007.6
20260503045338 46 161 0.0 0.0 0.00 0.00 0.00 52 1007.8
20260503044834 46 170 0.9 0.9 0.00 0.00 0.00 49 1007.9
20260503044331 47 222 0.9 1.7 0.00 0.00 0.00 51 1008.0
20260503043828 46 241 2.6 4.3 0.00 0.00 0.00 50 1008.0
20260503043325 45 187 0.9 0.9 0.00 0.00 0.00 57 1008.2
20260503042821 45 121 0.0 0.9 0.00 0.00 0.00 54 1008.2
20260503042318 44 144 0.9 0.9 0.00 0.00 0.00 54 1008.4
20260503041814 44 178 0.0 0.9 0.00 0.00 0.00 55 1008.7
20260503041311 42 199 0.9 1.7 0.00 0.00 0.00 58 1008.5
20260503040809 42 138 0.0 0.0 0.00 0.00 0.00 62 1008.8
20260503040306 43 130 0.0 0.0 0.00 0.00 0.00 63 1008.3
20260503035803 43 157 0.0 0.0 0.00 0.00 0.00 58 1008.3
20260503035300 43 172 0.0 0.0 0.00 0.00 0.00 59 1008.5
20260503034757 43 214 0.9 1.7 0.00 0.00 0.00 56 1008.7
20260503034254 43 157 0.9 0.9 0.00 0.00 0.00 56 1008.6
20260503033752 43 219 0.9 0.9 0.00 0.00 0.00 54 1008.7
20260503033249 43 221 0.0 0.9 0.00 0.00 0.00 55 1008.6
20260503032747 43 128 0.0 0.9 0.00 0.00 0.00 55 1008.5
20260503032246 43 238 0.9 0.9 0.00 0.00 0.00 54 1008.9
20260503031742 44 200 2.6 2.6 0.00 0.00 0.00 52 1009.0
20260503031241 44 233 1.7 1.7 0.00 0.00 0.00 53 1009.2
20260503030736 44 187 0.0 0.0 0.00 0.00 0.00 53 1009.1
20260503030233 44 226 0.0 0.9 0.00 0.00 0.00 52 1009.3
20260503025725 44 171 0.0 0.0 0.00 0.00 0.00 52 1009.3
20260503025223 44 281 1.7 1.7 0.00 0.00 0.00 50 1009.3
20260503024719 44 210 0.9 1.7 0.00 0.00 0.00 50 1009.5
20260503024216 44 163 0.0 0.0 0.00 0.00 0.00 49 1009.6
20260503023713 44 176 0.0 0.9 0.00 0.00 0.00 48 1009.8
20260503023209 44 236 1.7 1.7 0.00 0.00 0.00 48 1009.7
20260503022705 44 245 4.3 6.1 0.00 0.00 0.00 48 1009.6
20260503022205 44 200 0.0 0.0 0.00 0.00 0.00 51 1010.0
20260503021702 44 219 2.6 4.3 0.00 0.00 0.00 47 1010.1
20260503021158 44 257 2.6 2.6 0.00 0.00 0.00 47 1009.8
20260503020656 44 279 0.9 2.6 0.00 0.00 0.00 47 1010.2
20260503020153 44 218 0.0 0.9 0.00 0.00 0.00 50 1010.0
20260503015650 44 153 0.0 0.0 0.00 0.00 0.00 49 1010.2
20260503015147 44 131 0.9 1.7 0.00 0.00 0.00 47 1010.4
20260503014643 44 172 0.0 0.0 0.00 0.00 0.00 48 1010.3
20260503014141 44 262 2.6 2.6 0.00 0.00 0.00 47 1010.2
20260503013638 44 296 1.7 2.6 0.00 0.00 0.00 47 1009.8
20260503013136 44 173 0.0 0.9 0.00 0.00 0.00 48 1010.3
20260503012633 44 134 0.0 0.9 0.00 0.00 0.00 47 1010.2
20260503012129 45 50 3.5 4.3 0.00 0.00 0.00 46 1010.4
20260503011626 45 221 0.9 1.7 0.00 0.00 0.00 47 1010.5
20260503011123 45 352 0.9 1.7 0.00 0.00 0.00 48 1010.4
20260503010619 45 195 0.0 0.9 0.00 0.00 0.00 49 1010.7
20260503010117 46 179 0.0 0.9 0.00 0.00 0.00 48 1010.7
20260503005614 46 216 0.0 0.0 0.00 0.00 0.00 47 1010.9
20260503005111 46 119 0.9 0.9 0.00 0.00 0.00 46 1010.8
20260503004607 47 235 2.6 4.3 0.00 0.00 0.00 46 1010.5
20260503004106 47 229 0.0 0.9 0.00 0.00 0.00 47 1011.0
20260503003602 48 186 0.9 0.9 0.00 0.00 0.00 46 1010.9
20260503003059 48 149 0.0 0.0 0.00 0.00 0.00 48 1010.9
20260503002556 48 173 0.0 0.0 0.00 0.00 0.00 48 1010.8
20260503002053 48 184 0.0 0.0 0.00 0.00 0.00 47 1011.1
20260503001549 49 179 0.0 0.0 0.00 0.00 0.00 45 1010.9
20260503001046 49 140 0.0 0.0 0.00 0.00 0.00 48 1011.0
20260503000544 49 143 0.0 0.0 0.00 0.00 0.00 45 1011.1
20260503000041 50 142 0.0 0.0 0.00 0.00 0.00 46 1011.2
20260502235537 50 143 0.0 0.0 0.00 0.00 0.00 40 1011.2
20260502235035 50 143 0.0 0.0 0.00 0.00 0.00 38 1011.3
20260502234531 50 143 0.0 0.0 0.00 0.00 0.00 38 1011.2
20260502234029 50 156 0.0 0.0 0.00 0.00 0.00 34 1011.4
20260502233529 51 174 0.0 0.0 0.00 0.00 0.00 32 1011.4
20260502233026 51 158 0.0 0.0 0.00 0.00 0.00 31 1011.7
20260502232522 51 159 0.0 0.0 0.00 0.00 0.00 34 1011.6
20260502232020 51 143 0.0 0.0 0.00 0.00 0.00 31 1011.7
20260502231517 51 111 0.0 0.0 0.00 0.00 0.00 32 1011.7
20260502231015 51 155 0.0 0.0 0.00 0.00 0.00 31 1011.8
20260502230513 51 165 0.0 0.0 0.00 0.00 0.00 31 1011.9
20260502230011 52 177 0.9 0.9 0.00 0.00 0.00 31 1011.9
20260502225511 52 156 0.9 0.9 0.00 0.00 0.00 30 1011.9
20260502225009 53 192 0.9 0.9 0.00 0.00 0.00 29 1011.8
20260502224505 53 230 0.0 0.9 0.00 0.00 0.00 28 1011.9
20260502224002 54 207 0.9 0.9 0.00 0.00 0.00 29 1011.9
20260502223500 54 148 0.0 0.0 0.00 0.00 0.00 29 1011.9
20260502222958 54 199 0.0 0.0 0.00 0.00 0.00 30 1012.1
20260502222455 54 83 0.0 0.9 0.00 0.00 0.00 30 1012.3
20260502221950 54 249 1.7 1.7 0.00 0.00 0.00 28 1012.4
20260502221447 53 127 0.0 0.9 0.00 0.00 0.00 31 1012.4
20260502220944 53 179 0.9 0.9 0.00 0.00 0.00 32 1012.4
20260502220439 53 112 0.9 0.9 0.00 0.00 0.00 31 1012.1
20260502215937 53 105 0.0 0.9 0.00 0.00 0.00 34 1012.4
20260502215434 53 188 0.9 1.7 0.00 0.00 0.00 33 1012.5
20260502214931 53 211 1.7 1.7 0.00 0.00 0.00 32 1012.5
20260502214428 52 179 0.0 0.9 0.00 0.00 0.00 38 1012.4
20260502213925 52 197 0.9 0.9 0.00 0.00 0.00 34 1012.6
20260502213421 51 225 1.7 1.7 0.00 0.00 0.00 37 1012.7
20260502212921 51 217 1.7 1.7 0.00 0.00 0.00 36 1012.5
20260502212419 51 155 0.0 0.0 0.00 0.00 0.00 39 1012.8
20260502211915 51 266 0.9 0.9 0.00 0.00 0.00 37 1012.9
20260502211411 51 208 0.9 0.9 0.00 0.00 0.00 38 1013.0
20260502210909 50 212 0.0 0.0 0.00 0.00 0.00 42 1012.9
20260502210406 50 117 0.0 0.0 0.00 0.00 0.00 45 1012.9
20260502205903 49 146 0.0 0.9 0.00 0.00 0.00 44 1013.1
20260502205359 49 177 0.9 0.9 0.00 0.00 0.00 42 1013.4
20260502204856 49 184 0.0 0.0 0.00 0.00 0.00 44 1013.2
20260502204353 49 207 1.7 1.7 0.00 0.00 0.00 43 1013.5
20260502203851 48 334 1.7 1.7 0.00 0.00 0.00 48 1013.5
20260502203348 48 323 0.9 1.7 0.00 0.00 0.00 49 1013.6
20260502202843 48 147 0.9 1.7 0.00 0.00 0.00 50 1013.9
20260502202341 46 173 0.0 0.0 0.00 0.00 0.00 54 1013.8
20260502201839 46 58 0.9 0.9 0.00 0.00 0.00 55 1013.8
20260502201335 45 117 0.9 0.9 0.00 0.00 0.00 58 1013.9
20260502200831 45 91 0.9 0.9 0.00 0.00 0.00 58 1014.0
20260502200327 45 2 0.9 0.9 0.00 0.00 0.00 56 1013.8
20260502195825 44 162 0.9 0.9 0.00 0.00 0.00 63 1013.9
20260502195322 44 49 0.9 1.7 0.00 0.00 0.00 66 1014.0
20260502194819 45 309 0.9 1.7 0.00 0.00 0.00 65 1014.1
20260502194315 45 132 0.0 0.0 0.00 0.00 0.00 63 1014.3
20260502193811 45 138 0.0 0.0 0.00 0.00 0.00 63 1014.4
20260502193309 44 342 0.9 0.9 0.00 0.00 0.00 65 1014.5
20260502192804 44 123 0.0 0.9 0.00 0.00 0.00 66 1014.4
20260502192304 45 22 0.9 1.7 0.00 0.00 0.00 65 1014.6
20260502191758 45 180 0.9 0.9 0.00 0.00 0.00 67 1014.6
20260502191256 46 253 0.9 0.9 0.00 0.00 0.00 62 1014.7
20260502190753 47 196 1.7 1.7 0.00 0.00 0.00 62 1015.0
20260502190250 46 209 0.9 0.9 0.00 0.00 0.00 63 1015.1
20260502185750 44 250 1.7 2.6 0.00 0.00 0.00 67 1015.2
20260502185247 44 169 0.9 1.7 0.00 0.00 0.00 65 1015.5
20260502184743 45 151 0.9 0.9 0.00 0.00 0.00 68 1015.6
20260502184239 44 146 0.0 0.0 0.00 0.00 0.00 69 1015.2
20260502183736 44 264 1.7 1.7 0.00 0.00 0.00 68 1015.5
20260502183232 44 235 0.9 0.9 0.00 0.00 0.00 71 1015.7
20260502182727 45 197 0.9 0.9 0.00 0.00 0.00 66 1015.7
20260502182223 45 193 0.9 1.7 0.00 0.00 0.00 68 1015.6
20260502181720 45 190 0.0 0.9 0.00 0.00 0.00 68 1015.8
20260502181214 45 166 0.0 0.0 0.00 0.00 0.00 68 1015.7
20260502180711 44 190 0.0 0.0 0.00 0.00 0.00 73 1015.8
20260502180208 45 156 0.0 0.0 0.00 0.00 0.00 67 1015.9
20260502170131 45 192 0.9 0.9 0.00 0.00 0.00 66 1016.4
20260502164118 46 209 0.9 1.7 0.00 0.00 0.00 61 1016.6
20260502163614 47 233 1.7 1.7 0.00 0.00 0.00 59 1016.7
20260502163111 46 199 1.7 1.7 0.00 0.00 0.00 68 1016.6
20260502162608 47 167 0.9 0.9 0.00 0.00 0.00 66 1016.5
20260502162100 47 175 0.9 0.9 0.00 0.00 0.00 65 1016.8
20260502161556 46 109 0.9 0.9 0.00 0.00 0.00 64 1016.7
20260502161054 46 195 0.9 1.7 0.00 0.00 0.00 65 1016.8
20260502160552 46 144 0.0 0.0 0.00 0.00 0.00 63 1017.0
20260502152004 44 171 1.7 2.6 0.00 0.00 0.00 64 1017.1
20260502151500 44 170 0.0 0.9 0.00 0.00 0.00 64 1017.1
20260502150958 44 201 1.7 2.6 0.00 0.00 0.00 65 1017.2
20260502150455 44 176 0.9 0.9 0.00 0.00 0.00 66 1017.1
20260502130340 36 130 0.0 0.0 0.00 0.00 0.00 69 1017.7
20260502123323 33 156 0.0 0.0 0.00 0.00 0.00 73 1017.7
20260502122820 33 166 0.0 0.0 0.00 0.00 0.00 76 1017.9
20260502122316 32 151 0.0 0.0 0.00 0.00 0.00 74 1017.7
20260502121814 32 174 0.0 0.0 0.00 0.00 0.00 76 1018.0
20260502121311 31 153 0.0 0.0 0.00 0.00 0.00 78 1017.8
20260502120808 31 151 0.0 0.0 0.00 0.00 0.00 79 1017.8
20260502120305 31 155 0.0 0.0 0.00 0.00 0.00 79 1017.8
20260502115803 30 172 0.0 0.0 0.00 0.00 0.00 80 1017.8
20260502115259 30 156 0.0 0.0 0.00 0.00 0.00 80 1018.0
20260502114755 30 161 0.0 0.0 0.00 0.00 0.00 79 1017.9
20260502114252 30 167 0.0 0.0 0.00 0.00 0.00 80 1017.9
20260502113750 30 174 0.0 0.0 0.00 0.00 0.00 80 1017.8
20260502113248 30 180 0.0 0.0 0.00 0.00 0.00 79 1017.9
20260502112746 30 154 0.0 0.0 0.00 0.00 0.00 80 1017.9
20260502112243 30 187 0.0 0.9 0.00 0.00 0.00 79 1018.1
20260502111739 30 154 0.0 0.9 0.00 0.00 0.00 80 1017.9
20260502111237 29 122 0.9 0.9 0.00 0.00 0.00 79 1017.9
20260502110734 29 167 0.0 0.9 0.00 0.00 0.00 81 1018.0
20260502110232 29 160 0.0 0.0 0.00 0.00 0.00 80 1017.8
20260502105730 30 194 0.0 0.0 0.00 0.00 0.00 79 1017.7
20260502105226 29 176 0.0 0.0 0.00 0.00 0.00 80 1017.9
20260502104724 29 184 0.0 0.0 0.00 0.00 0.00 80 1017.9
20260502104221 29 148 0.0 0.0 0.00 0.00 0.00 80 1017.9
20260502103719 28 171 0.0 0.0 0.00 0.00 0.00 81 1018.0
20260502103216 28 169 0.0 0.0 0.00 0.00 0.00 81 1017.9
20260502102713 28 165 0.0 0.0 0.00 0.00 0.00 81 1018.0
20260502102210 29 151 0.0 0.0 0.00 0.00 0.00 80 1017.9
20260502101708 29 175 0.0 0.0 0.00 0.00 0.00 80 1017.9
20260502101206 29 176 0.0 0.0 0.00 0.00 0.00 82 1018.0
20260502100703 29 187 0.0 0.0 0.00 0.00 0.00 81 1017.9
20260502100202 29 150 0.0 0.0 0.00 0.00 0.00 79 1018.0
20260502091136 29 159 0.0 0.0 0.00 0.00 0.00 80 1017.8
20260502090633 29 200 0.9 0.9 0.00 0.00 0.00 80 1017.9
20260502090130 29 168 0.0 0.0 0.00 0.00 0.00 80 1017.7
20260502071527 28 204 0.0 0.9 0.00 0.00 0.00 84 1018.1
20260502071025 29 195 0.9 0.9 0.00 0.00 0.00 83 1018.4
20260502070523 29 166 0.9 0.9 0.00 0.00 0.00 82 1018.5
20260502070021 29 153 0.0 0.0 0.00 0.00 0.00 81 1018.5
20260502065519 29 129 0.0 0.9 0.00 0.00 0.00 82 1018.4
20260502065017 29 145 0.0 0.9 0.00 0.00 0.00 81 1018.6
20260502064515 29 143 0.0 0.9 0.00 0.00 0.00 81 1018.3
20260502064012 29 226 0.0 0.9 0.00 0.00 0.00 81 1018.6
20260502063509 29 161 0.0 0.0 0.00 0.00 0.00 82 1018.4
20260502063007 28 141 0.0 0.0 0.00 0.00 0.00 84 1018.4
20260502062503 28 175 0.0 0.9 0.00 0.00 0.00 85 1018.6
20260502062002 28 151 0.0 0.0 0.00 0.00 0.00 85 1018.8
20260502061500 28 164 0.0 0.0 0.00 0.00 0.00 83 1018.9
20260502060956 28 140 0.0 0.0 0.00 0.00 0.00 85 1018.9
20260502060451 29 147 0.0 0.0 0.00 0.00 0.00 84 1018.7
20260502055948 29 193 0.0 0.9 0.00 0.00 0.00 82 1018.7
20260502055446 28 160 0.0 0.0 0.00 0.00 0.00 84 1018.7
20260502054940 29 154 0.0 0.0 0.00 0.00 0.00 84 1018.8
20260502054438 29 156 0.0 0.0 0.00 0.00 0.00 85 1018.9
20260502053935 29 176 0.0 0.0 0.00 0.00 0.00 85 1019.1
20260502053432 29 155 0.0 0.0 0.00 0.00 0.00 85 1018.9
20260502052929 29 146 0.0 0.0 0.00 0.00 0.00 84 1019.0
20260502052427 29 145 0.0 0.0 0.00 0.00 0.00 85 1019.0
20260502051926 29 136 0.0 0.0 0.00 0.00 0.00 85 1019.0
20260502051423 29 168 0.0 0.0 0.00 0.00 0.00 84 1019.0